TimeEST,TemperatureF,Dew PointF,Humidity,Sea Level PressureIn,VisibilityMPH,Wind Direction,Wind SpeedMPH,Gust SpeedMPH,PrecipitationIn,Events,Conditions,WindDirDegrees,DateUTC
12:53 AM,73.0,66.0,79,30.19,10.0,Variable,3.5,-,N/A,,Overcast,0,2013-01-09 05:53:00
1:53 AM,72.0,66.0,81,30.20,10.0,ENE,4.6,-,N/A,,Overcast,70,2013-01-09 06:53:00
2:53 AM,71.1,66.9,87,30.19,10.0,East,4.6,-,N/A,,Scattered Clouds,90,2013-01-09 07:53:00
3:53 AM,70.0,66.9,90,30.19,10.0,NE,4.6,-,N/A,,Partly Cloudy,40,2013-01-09 08:53:00
4:53 AM,69.1,66.0,90,30.19,8.0,ENE,3.5,-,N/A,,Scattered Clouds,60,2013-01-09 09:53:00
5:25 AM,69.8,66.2,88,30.19,5.0,East,4.6,-,N/A,,Mostly Cloudy,80,2013-01-09 10:25:00
5:53 AM,69.1,66.9,93,30.20,5.0,ENE,3.5,-,N/A,,Mostly Cloudy,60,2013-01-09 10:53:00
6:53 AM,69.1,66.9,93,30.22,6.0,ENE,5.8,-,N/A,,Mostly Cloudy,60,2013-01-09 11:53:00
7:30 AM,69.8,66.2,88,30.23,7.0,East,4.6,-,N/A,,Mostly Cloudy,90,2013-01-09 12:30:00
7:53 AM,71.1,68.0,90,30.24,8.0,East,3.5,-,N/A,,Mostly Cloudy,90,2013-01-09 12:53:00
8:21 AM,71.6,68.0,88,30.26,9.0,East,3.5,-,N/A,,Mostly Cloudy,90,2013-01-09 13:21:00
8:53 AM,73.0,68.0,84,30.27,10.0,ESE,8.1,-,N/A,,Mostly Cloudy,110,2013-01-09 13:53:00
9:53 AM,75.9,68.0,76,30.28,10.0,ESE,9.2,16.1,N/A,,Mostly Cloudy,110,2013-01-09 14:53:00
10:53 AM,79.0,68.0,69,30.29,10.0,SE,8.1,-,N/A,,Mostly Cloudy,140,2013-01-09 15:53:00
11:53 AM,80.1,66.9,64,30.27,10.0,SE,8.1,-,N/A,,Mostly Cloudy,140,2013-01-09 16:53:00
12:53 PM,82.0,66.0,58,30.24,10.0,SSE,6.9,-,N/A,,Scattered Clouds,150,2013-01-09 17:53:00
1:53 PM,82.9,64.0,53,30.22,10.0,SSE,9.2,16.1,N/A,,Scattered Clouds,160,2013-01-09 18:53:00
2:53 PM,84.0,64.0,51,30.21,10.0,South,4.6,-,N/A,,Mostly Cloudy,170,2013-01-09 19:53:00
3:53 PM,84.0,63.0,49,30.21,10.0,SSE,6.9,-,N/A,,Mostly Cloudy,150,2013-01-09 20:53:00
4:53 PM,84.0,63.0,49,30.21,10.0,Variable,6.9,-,N/A,,Overcast,0,2013-01-09 21:53:00
5:53 PM,82.0,62.1,51,30.22,10.0,Calm,Calm,-,N/A,,Overcast,0,2013-01-09 22:53:00
6:53 PM,80.6,62.6,54,30.24,10.0,East,4.6,-,N/A,,Clear,80,2013-01-09 23:53:00
7:53 PM,79.0,62.1,56,30.25,10.0,East,5.8,-,N/A,,Clear,90,2013-01-10 00:53:00
8:53 PM,77.0,66.0,69,30.26,10.0,ESE,8.1,19.6,N/A,,Clear,110,2013-01-10 01:53:00
9:53 PM,75.0,66.9,76,30.28,10.0,East,4.6,-,N/A,,Clear,80,2013-01-10 02:53:00
10:53 PM,73.9,68.0,82,30.30,10.0,East,5.8,-,N/A,,Scattered Clouds,90,2013-01-10 03:53:00
11:53 PM,73.0,68.0,84,30.30,10.0,East,4.6,-,N/A,,Partly Cloudy,90,2013-01-10 04:53:00